This is the latest recevied weather packets stored in our database for station/object JA0ZJX-13. If no packets are shown the sender has not sent any weather packets the latest 10 day(s).
| Time | Temp. | Humidity | Pressure | Rain* | Wind** | Luminosity | Snow |
|---|---|---|---|---|---|---|---|
| 1777684423 | 18.89° C | 45% | 1007.7 hPa | 0 mm | - | 888 W/m² | - |
| 1777683813 | 18.89° C | 45% | 1007.6 hPa | 0 mm | - | 874 W/m² | - |
| 1777683222 | 18.33° C | 46% | 1007.4 hPa | 0 mm | - | 853 W/m² | - |
| 1777682615 | 18.33° C | 47% | 1007.1 hPa | 0 mm | - | 838 W/m² | - |
| 1777682005 | 17.22° C | 47% | 1007.1 hPa | 0 mm | - | 810 W/m² | - |
| 1777681415 | 17.22° C | 50% | 1007.2 hPa | 0 mm | - | 784 W/m² | - |
| 1777680824 | 17.22° C | 50% | 1007.3 hPa | 0 mm | - | 756 W/m² | - |
| 1777680218 | 16.67° C | 51% | 1007.4 hPa | 0 mm | - | 735 W/m² | - |
| 1777679605 | 16.11° C | 53% | 1007.3 hPa | 0 mm | - | 705 W/m² | - |
| 1777679014 | 15.56° C | 58% | 1007.3 hPa | 0 mm | - | 163 W/m² | - |
| 1777678408 | 15.56° C | 61% | 1007.3 hPa | 0 mm | - | 652 W/m² | - |
| 1777677818 | 15° C | 64% | 1007.3 hPa | 0 mm | - | 622 W/m² | - |
| 1777677206 | 14.44° C | 66% | 1007.3 hPa | 0 mm | - | 598 W/m² | - |
| 1777676614 | 13.89° C | 68% | 1007 hPa | 0 mm | - | 561 W/m² | - |
| 1777676007 | 13.89° C | 68% | 1007 hPa | 0 mm | - | 527 W/m² | - |
| 1777675416 | 13.33° C | 71% | 1006.9 hPa | 0 mm | - | 501 W/m² | - |
| 1777674806 | 13.33° C | 73% | 1006.7 hPa | 0 mm | - | 464 W/m² | - |
| 1777674216 | 12.22° C | 76% | 1006.7 hPa | 0 mm | - | 432 W/m² | - |
| 1777673609 | 11.67° C | 78% | 1006.6 hPa | 0 mm | - | 396 W/m² | - |
| 1777673018 | 11.11° C | 80% | 1006.6 hPa | 0 mm | - | 360 W/m² | - |
| 1777672408 | 10.56° C | 82% | 1006.4 hPa | 0 mm | - | 325 W/m² | - |
| 1777671817 | 10° C | 84% | 1006.4 hPa | 0 mm | - | 294 W/m² | - |
| 1777671210 | 9.44° C | 87% | 1006.3 hPa | 0 mm | - | 255 W/m² | - |
| 1777670621 | 8.89° C | 87% | 1006.2 hPa | 0 mm | - | 218 W/m² | - |
| 1777670008 | 8.33° C | 87% | 1006 hPa | 0 mm | - | 179 W/m² | - |
* Rain latest hour (hover to see other rain measurements)
** Current wind speed in m/s (hover to see current wind gust speed)